Location: Milton Keynes
(52.0316°N, 0.7531°W)
Time: 00:52:21
(UTC+00:00)

GENESIS II - Visible Passes

Search period start: 24 January 2019 00:00
Search period end: 03 February 2019 00:00
Orbit: 488 x 542 km, 64.5° (Epoch: 22 January)

Date Brightness Start Highest point End Pass type
(mag) Time Alt. Az. Time Alt. Az. Time Alt. Az.
24 Jan 8.0 06:30:32 10° SE 06:31:48 11° ESE 06:33:04 10° E visible
25 Jan 7.8 06:14:34 10° SE 06:15:56 12° ESE 06:17:19 10° E visible
26 Jan 7.7 05:58:37 10° SE 06:00:05 12° ESE 06:01:33 10° E visible
27 Jan 7.6 05:42:41 10° SE 05:44:14 12° ESE 05:45:47 10° E visible
28 Jan 7.5 05:26:44 10° SE 05:28:22 12° ESE 05:30:01 10° E visible
28 Jan 4.4 07:01:25 10° SW 07:05:22 81° SE 07:09:25 10° NE visible
29 Jan 7.4 05:10:48 10° SE 05:12:31 13° ESE 05:14:14 10° E visible
29 Jan 4.3 06:45:35 10° SW 06:49:31 82° SE 06:53:34 10° NE visible
30 Jan 7.3 04:54:52 10° SE 04:56:40 13° ESE 04:58:28 10° E visible
30 Jan 4.3 06:29:43 10° SW 06:33:40 83° SE 06:37:43 10° NE visible
31 Jan 7.2 04:38:56 10° SE 04:40:48 13° ESE 04:42:41 10° E visible
31 Jan 4.2 06:13:53 10° SW 06:17:50 85° SE 06:21:53 10° NE visible
01 Feb 7.1 04:23:39 12° SE 04:24:56 13° ESE 04:26:53 10° E visible
01 Feb 4.2 05:58:41 15° SW 06:01:59 86° SE 06:06:02 10° NE visible
02 Feb 7.1 04:09:07 14° ESE 04:09:07 14° ESE 04:11:06 10° E visible
02 Feb 4.2 05:44:08 28° SW 05:46:08 88° SE 05:50:11 10° NE visible
